Time,TemperatureF,DewpointF,PressureIn,WindDirection,WindDirectionDegrees,WindSpeedMPH,WindSpeedGustMPH,Humidity,HourlyPrecipIn,Conditions,Clouds,dailyrainin,SoftwareType,DateUTC
2013-01-18 00:01:00,15.5,12.3,30.17,NE,46,0.3,2.3,87,0.00,BKN,,0.00,WeatherDisplay:10.37,2013-01-18 05:01:00,
2013-01-18 00:03:00,15.5,12.3,30.17,NE,46,0.0,0.0,87,0.00,BKN,,0.00,WeatherDisplay:10.37,2013-01-18 05:03:00,
2013-01-18 00:08:00,15.5,12.3,30.18,NE,45,0.0,0.0,87,0.00,BKN,,0.00,WeatherDisplay:10.37,2013-01-18 05:08:00,
2013-01-18 00:13:00,15.5,12.3,30.18,NE,45,0.0,0.0,87,0.00,BKN,,0.00,WeatherDisplay:10.37,2013-01-18 05:13:00,
2013-01-18 00:18:00,15.5,12.3,30.18,NE,46,0.0,0.0,87,0.00,BKN,,0.00,WeatherDisplay:10.37,2013-01-18 05:18:00,
2013-01-18 00:23:00,15.6,12.7,30.18,NE,46,0.0,0.0,88,0.00,BKN,,0.00,WeatherDisplay:10.37,2013-01-18 05:23:00,
2013-01-18 00:28:00,15.5,12.3,30.18,NE,46,0.0,0.0,87,0.00,BKN,,0.00,WeatherDisplay:10.37,2013-01-18 05:28:00,
2013-01-18 00:33:00,15.5,12.3,30.19,NE,46,0.0,0.0,87,0.00,BKN,,0.00,WeatherDisplay:10.37,2013-01-18 05:33:00,
2013-01-18 00:38:00,15.3,12.1,30.19,NE,45,0.0,0.0,87,0.00,BKN,,0.00,WeatherDisplay:10.37,2013-01-18 05:38:00,
2013-01-18 00:43:00,15.3,12.1,30.20,NE,45,0.0,0.0,87,0.00,BKN,,0.00,WeatherDisplay:10.37,2013-01-18 05:43:00,
2013-01-18 00:48:00,15.2,12.0,30.20,NE,46,0.0,0.0,87,0.00,BKN,,0.00,WeatherDisplay:10.37,2013-01-18 05:48:00,
2013-01-18 00:53:00,15.2,12.3,30.20,NE,46,0.0,0.0,88,0.00,BKN,,0.00,WeatherDisplay:10.37,2013-01-18 05:53:00,
2013-01-18 00:58:00,15.3,12.4,30.20,NE,46,0.0,0.0,88,0.00,BKN,,0.00,WeatherDisplay:10.37,2013-01-18 05:58:00,
2013-01-18 01:03:00,15.4,12.5,30.20,NE,45,0.0,0.0,88,0.00,-SN,,0.00,WeatherDisplay:10.37,2013-01-18 06:03:00,
2013-01-18 01:08:00,15.5,12.6,30.21,NE,45,0.0,0.0,88,0.00,-SN,,0.00,WeatherDisplay:10.37,2013-01-18 06:08:00,
2013-01-18 01:13:00,15.7,12.8,30.21,NE,46,0.0,0.0,88,0.00,-SN,,0.00,WeatherDisplay:10.37,2013-01-18 06:13:00,
2013-01-18 01:18:00,15.8,12.9,30.21,NE,45,0.0,0.0,88,0.00,-SN,,0.00,WeatherDisplay:10.37,2013-01-18 06:18:00,
2013-01-18 01:23:00,15.8,12.9,30.21,NE,46,0.0,0.0,88,0.00,-SN,,0.00,WeatherDisplay:10.37,2013-01-18 06:23:00,
2013-01-18 01:28:00,15.9,13.0,30.22,NE,45,0.0,0.0,88,0.00,-SN,,0.00,WeatherDisplay:10.37,2013-01-18 06:28:00,
2013-01-18 01:33:00,15.9,13.0,30.22,NE,45,0.0,0.0,88,0.00,-SN,,0.00,WeatherDisplay:10.37,2013-01-18 06:33:00,
2013-01-18 01:38:00,15.8,12.9,30.22,NE,46,0.0,0.0,88,0.00,-SN,,0.00,WeatherDisplay:10.37,2013-01-18 06:38:00,
2013-01-18 01:43:00,15.8,12.9,30.23,NE,46,0.0,0.0,88,0.00,-SN,,0.00,WeatherDisplay:10.37,2013-01-18 06:43:00,
2013-01-18 01:48:00,15.7,12.8,30.23,NE,46,0.0,0.0,88,0.00,-SN,,0.00,WeatherDisplay:10.37,2013-01-18 06:48:00,
2013-01-18 01:54:00,15.6,12.7,30.23,NE,46,0.0,0.0,88,0.00,-SN,,0.00,WeatherDisplay:10.37,2013-01-18 06:54:00,
2013-01-18 01:59:00,15.6,12.7,30.23,NE,45,0.0,0.0,88,0.00,-SN,,0.00,WeatherDisplay:10.37,2013-01-18 06:59:00,
2013-01-18 02:04:00,15.6,12.7,30.23,NE,46,0.0,0.0,88,0.00,-SN,,0.00,WeatherDisplay:10.37,2013-01-18 07:04:00,
2013-01-18 02:09:00,15.6,12.9,30.24,NE,46,0.0,0.0,89,0.00,-SN,,0.00,WeatherDisplay:10.37,2013-01-18 07:09:00,
2013-01-18 02:14:00,15.8,13.1,30.24,NE,46,0.0,0.0,89,0.00,-SN,,0.00,WeatherDisplay:10.37,2013-01-18 07:14:00,
2013-01-18 02:19:00,15.9,13.2,30.24,NE,46,0.0,0.0,89,0.00,-SN,,0.00,WeatherDisplay:10.37,2013-01-18 07:19:00,
2013-01-18 02:24:00,15.9,13.2,30.25,NE,45,0.0,0.0,89,0.00,-SN,,0.00,WeatherDisplay:10.37,2013-01-18 07:24:00,
2013-01-18 02:29:00,16.0,13.3,30.25,NE,46,0.0,1.1,89,0.00,-SN,,0.00,WeatherDisplay:10.37,2013-01-18 07:29:00,
2013-01-18 02:34:00,16.2,13.5,30.26,NE,46,0.0,2.0,89,0.00,-SN,,0.00,WeatherDisplay:10.37,2013-01-18 07:34:00,
2013-01-18 02:39:00,16.3,13.6,30.26,WNW,294,2.5,3.5,89,0.00,-SN,,0.00,WeatherDisplay:10.37,2013-01-18 07:39:00,
2013-01-18 02:44:00,16.4,13.7,30.27,WNW,284,2.3,3.5,89,0.00,-SN,,0.00,WeatherDisplay:10.37,2013-01-18 07:44:00,
2013-01-18 02:49:00,16.5,13.8,30.27,West,277,3.0,3.5,89,0.00,-SN,,0.00,WeatherDisplay:10.37,2013-01-18 07:49:00,
2013-01-18 02:54:00,16.5,13.8,30.27,West,277,0.7,3.5,89,0.00,-SN,,0.00,WeatherDisplay:10.37,2013-01-18 07:54:00,
2013-01-18 02:59:00,16.5,13.8,30.27,West,279,1.7,3.5,89,0.00,-SN,,0.00,WeatherDisplay:10.37,2013-01-18 07:59:00,
2013-01-18 03:04:00,16.5,13.8,30.28,West,276,3.3,3.5,89,0.00,-SN,,0.00,WeatherDisplay:10.37,2013-01-18 08:04:00,
2013-01-18 03:09:00,16.4,13.7,30.28,West,277,1.6,3.5,89,0.00,-SN,,0.00,WeatherDisplay:10.37,2013-01-18 08:09:00,
2013-01-18 03:14:00,16.4,13.7,30.28,West,276,1.9,3.5,89,0.00,-SN,,0.00,WeatherDisplay:10.37,2013-01-18 08:14:00,
2013-01-18 03:19:00,16.4,13.7,30.28,West,276,0.0,1.1,89,0.00,-SN,,0.00,WeatherDisplay:10.37,2013-01-18 08:19:00,
2013-01-18 03:24:00,16.5,13.8,30.28,West,277,0.2,3.5,89,0.00,-SN,,0.00,WeatherDisplay:10.37,2013-01-18 08:24:00,
2013-01-18 03:29:00,16.6,13.9,30.28,West,277,0.0,0.0,89,0.00,-SN,,0.00,WeatherDisplay:10.37,2013-01-18 08:29:00,
2013-01-18 03:34:00,16.5,13.8,30.28,West,277,0.0,0.0,89,0.00,-SN,,0.00,WeatherDisplay:10.37,2013-01-18 08:34:00,
2013-01-18 03:39:00,16.6,13.9,30.28,West,277,0.0,0.0,89,0.00,-SN,,0.00,WeatherDisplay:10.37,2013-01-18 08:39:00,
2013-01-18 03:44:00,16.6,13.9,30.28,West,277,0.0,0.0,89,0.00,-SN,,0.00,WeatherDisplay:10.37,2013-01-18 08:44:00,
2013-01-18 03:49:00,16.6,13.9,30.28,West,277,0.0,0.0,89,0.00,-SN,,0.00,WeatherDisplay:10.37,2013-01-18 08:49:00,
2013-01-18 03:54:00,16.6,13.9,30.28,West,277,0.0,0.0,89,0.00,-SN,,0.00,WeatherDisplay:10.37,2013-01-18 08:54:00,
2013-01-18 03:59:00,16.7,14.0,30.28,West,277,0.0,0.0,89,0.00,-SN,,0.00,WeatherDisplay:10.37,2013-01-18 08:59:00,
2013-01-18 04:04:00,16.7,14.0,30.28,West,277,0.0,2.3,89,0.00,-SN,,0.00,WeatherDisplay:10.37,2013-01-18 09:04:00,
2013-01-18 04:09:00,16.7,14.0,30.28,West,276,0.1,1.1,89,0.00,-SN,,0.00,WeatherDisplay:10.37,2013-01-18 09:09:00,
2013-01-18 04:14:00,16.7,14.0,30.29,West,277,0.7,1.0,89,0.00,OVC,,0.00,WeatherDisplay:10.37,2013-01-18 09:14:00,
2013-01-18 04:19:00,16.6,13.9,30.29,West,277,1.5,3.5,89,0.00,OVC,,0.00,WeatherDisplay:10.37,2013-01-18 09:19:00,
2013-01-18 04:24:00,16.5,13.8,30.29,West,277,0.0,3.0,89,0.00,-SN,,0.00,WeatherDisplay:10.37,2013-01-18 09:24:00,
2013-01-18 04:29:00,16.5,13.8,30.29,West,277,1.0,1.1,89,0.00,-SN,,0.00,WeatherDisplay:10.37,2013-01-18 09:29:00,
2013-01-18 04:34:00,16.5,13.8,30.30,West,276,0.4,2.3,89,0.00,-SN,,0.00,WeatherDisplay:10.37,2013-01-18 09:34:00,
2013-01-18 04:39:00,16.5,13.8,30.30,WSW,248,1.0,2.0,89,0.00,-SN,,0.00,WeatherDisplay:10.37,2013-01-18 09:39:00,
2013-01-18 04:44:00,16.6,13.9,30.30,SW,234,0.0,3.5,89,0.00,-SN,,0.00,WeatherDisplay:10.37,2013-01-18 09:44:00,
2013-01-18 04:49:00,16.7,14.3,30.30,SW,233,0.1,3.5,90,0.00,-SN,,0.00,WeatherDisplay:10.37,2013-01-18 09:49:00,
2013-01-18 04:54:00,16.8,14.3,30.30,SW,229,1.0,3.0,90,0.00,-SN,,0.00,WeatherDisplay:10.37,2013-01-18 09:54:00,
2013-01-18 04:59:00,16.9,14.5,30.31,SSW,195,1.6,3.5,90,0.00,-SN,,0.00,WeatherDisplay:10.37,2013-01-18 09:59:00,
2013-01-18 05:04:00,17.1,14.7,30.31,SW,234,3.4,3.5,90,0.00,OVC,,0.00,WeatherDisplay:10.37,2013-01-18 10:04:00,
2013-01-18 05:09:00,17.3,14.9,30.31,SW,228,2.0,3.5,90,0.00,OVC,,0.00,WeatherDisplay:10.37,2013-01-18 10:09:00,
2013-01-18 05:14:00,17.3,14.6,30.32,WSW,240,3.0,3.0,89,0.00,OVC,,0.00,WeatherDisplay:10.37,2013-01-18 10:14:00,
2013-01-18 05:19:00,17.3,14.9,30.32,West,269,7.1,8.1,90,0.00,OVC,,0.00,WeatherDisplay:10.37,2013-01-18 10:19:00,
2013-01-18 05:24:00,17.2,14.5,30.32,WSW,252,6.1,6.9,89,0.00,OVC,,0.00,WeatherDisplay:10.37,2013-01-18 10:24:00,
2013-01-18 05:29:00,17.2,14.3,30.33,WSW,255,8.0,10.0,88,0.00,OVC,,0.00,WeatherDisplay:10.37,2013-01-18 10:29:00,
2013-01-18 05:34:00,17.2,14.0,30.33,West,259,5.9,9.2,87,0.00,-SN,,0.00,WeatherDisplay:10.37,2013-01-18 10:34:00,
2013-01-18 05:39:00,17.1,13.6,30.33,West,273,5.0,8.1,86,0.00,-SN,,0.00,WeatherDisplay:10.37,2013-01-18 10:39:00,
2013-01-18 05:44:00,17.0,13.3,30.33,West,260,6.0,12.0,85,0.00,-SN,,0.00,WeatherDisplay:10.37,2013-01-18 10:44:00,
2013-01-18 05:49:00,16.8,12.8,30.33,West,267,7.0,10.0,84,0.00,-SN,,0.00,WeatherDisplay:10.37,2013-01-18 10:49:00,
2013-01-18 05:54:00,16.7,12.4,30.34,West,263,9.0,12.7,83,0.00,-SN,,0.00,WeatherDisplay:10.37,2013-01-18 10:54:00,
2013-01-18 05:59:00,16.8,12.5,30.34,WSW,258,8.0,12.0,83,0.00,-SN,,0.00,WeatherDisplay:10.37,2013-01-18 10:59:00,
2013-01-18 06:04:00,16.8,12.3,30.35,WSW,252,4.7,8.1,82,0.00,BKN,,0.00,WeatherDisplay:10.37,2013-01-18 11:04:00,
2013-01-18 06:09:00,16.8,12.5,30.35,WSW,254,6.0,6.0,83,0.00,BKN,,0.00,WeatherDisplay:10.37,2013-01-18 11:09:00,
2013-01-18 06:14:00,17.0,12.5,30.35,West,260,5.2,9.0,82,0.00,BKN,,0.00,WeatherDisplay:10.37,2013-01-18 11:14:00,
2013-01-18 06:19:00,17.1,12.6,30.36,SW,224,3.4,5.8,82,0.00,BKN,,0.00,WeatherDisplay:10.37,2013-01-18 11:19:00,
2013-01-18 06:24:00,17.1,12.6,30.36,West,259,5.5,7.0,82,0.00,BKN,,0.00,WeatherDisplay:10.37,2013-01-18 11:24:00,
2013-01-18 06:29:00,17.0,12.2,30.36,WSW,256,6.9,10.4,81,0.00,BKN,,0.00,WeatherDisplay:10.37,2013-01-18 11:29:00,
2013-01-18 06:34:00,16.9,12.1,30.36,West,279,6.0,11.5,81,0.00,BKN,,0.00,WeatherDisplay:10.37,2013-01-18 11:34:00,
2013-01-18 06:39:00,16.7,11.6,30.36,WSW,253,7.7,11.5,80,0.00,BKN,,0.00,WeatherDisplay:10.37,2013-01-18 11:39:00,
2013-01-18 06:44:00,16.4,12.1,30.37,West,267,7.9,11.5,83,0.00,-SN,,0.00,WeatherDisplay:10.37,2013-01-18 11:44:00,
2013-01-18 06:49:00,16.3,12.3,30.37,West,265,7.4,10.4,84,0.00,-SN,,0.00,WeatherDisplay:10.37,2013-01-18 11:49:00,
2013-01-18 06:54:00,16.2,12.5,30.37,WSW,252,8.2,15.0,85,0.00,-SN,,0.00,WeatherDisplay:10.37,2013-01-18 11:54:00,
2013-01-18 06:59:00,16.0,12.6,30.38,West,279,7.4,11.5,86,0.00,-SN,,0.00,WeatherDisplay:10.37,2013-01-18 11:59:00,
2013-01-18 07:04:00,15.9,12.5,30.37,West,277,7.4,10.4,86,0.00,OVC,,0.00,WeatherDisplay:10.37,2013-01-18 12:04:00,
2013-01-18 07:09:00,15.8,12.1,30.38,WSW,251,6.3,10.4,85,0.00,OVC,,0.00,WeatherDisplay:10.37,2013-01-18 12:09:00,
2013-01-18 07:14:00,15.7,11.5,30.38,WNW,288,7.5,10.4,83,0.00,SCT,,0.00,WeatherDisplay:10.37,2013-01-18 12:14:00,
2013-01-18 07:19:00,15.6,10.8,30.38,West,269,5.5,11.5,81,0.00,SCT,,0.00,WeatherDisplay:10.37,2013-01-18 12:19:00,
2013-01-18 07:24:00,15.4,10.1,30.39,WSW,250,4.8,11.5,79,0.00,SCT,,0.00,WeatherDisplay:10.37,2013-01-18 12:24:00,
2013-01-18 07:29:00,15.3,9.7,30.38,WNW,284,4.3,5.8,78,0.00,SCT,,0.00,WeatherDisplay:10.37,2013-01-18 12:29:00,
2013-01-18 07:34:00,15.2,9.6,30.39,West,269,6.3,8.1,78,0.00,SCT,,0.00,WeatherDisplay:10.37,2013-01-18 12:34:00,
2013-01-18 07:39:00,15.1,9.2,30.39,West,265,4.1,6.9,77,0.00,SCT,,0.00,WeatherDisplay:10.37,2013-01-18 12:39:00,
2013-01-18 07:44:00,15.0,9.1,30.39,West,267,4.3,8.1,77,0.00,SCT,,0.00,WeatherDisplay:10.37,2013-01-18 12:44:00,
2013-01-18 07:49:00,15.0,8.8,30.39,WSW,249,5.5,10.0,76,0.00,SCT,,0.00,WeatherDisplay:10.37,2013-01-18 12:49:00,
2013-01-18 07:54:00,15.2,8.4,30.39,WSW,258,5.6,10.4,74,0.00,SCT,,0.00,WeatherDisplay:10.37,2013-01-18 12:54:00,
2013-01-18 07:59:00,15.3,8.5,30.39,WSW,245,5.3,9.2,74,0.00,SCT,,0.00,WeatherDisplay:10.37,2013-01-18 12:59:00,
2013-01-18 08:04:00,15.3,8.2,30.39,WSW,256,6.2,8.1,73,0.00,FEW,,0.00,WeatherDisplay:10.37,2013-01-18 13:04:00,
2013-01-18 08:09:00,15.5,8.4,30.40,WNW,290,5.5,9.2,73,0.00,FEW,,0.00,WeatherDisplay:10.37,2013-01-18 13:09:00,
2013-01-18 08:14:00,15.5,8.4,30.40,WSW,246,5.2,8.1,73,0.00,FEW,,0.00,WeatherDisplay:10.37,2013-01-18 13:14:00,
2013-01-18 08:19:00,15.6,8.5,30.40,WSW,248,2.7,4.6,73,0.00,FEW,,0.00,WeatherDisplay:10.37,2013-01-18 13:19:00,
2013-01-18 08:24:00,15.4,8.6,30.40,WSW,246,5.9,8.1,74,0.00,FEW,,0.00,WeatherDisplay:10.37,2013-01-18 13:24:00,
2013-01-18 08:29:00,15.5,8.7,30.40,SW,230,4.5,6.9,74,0.00,FEW,,0.00,WeatherDisplay:10.37,2013-01-18 13:29:00,
2013-01-18 08:34:00,15.4,8.9,30.40,WSW,242,4.6,9.2,75,0.00,FEW,,0.00,WeatherDisplay:10.37,2013-01-18 13:34:00,
2013-01-18 08:39:00,15.2,8.7,30.41,SW,225,4.9,9.2,75,0.00,FEW,,0.00,WeatherDisplay:10.37,2013-01-18 13:39:00,
2013-01-18 08:44:00,15.1,8.9,30.41,WSW,250,4.7,9.2,76,0.00,FEW,,0.00,WeatherDisplay:10.37,2013-01-18 13:44:00,
2013-01-18 08:49:00,15.1,9.2,30.41,SW,229,5.3,9.2,77,0.00,FEW,,0.00,WeatherDisplay:10.37,2013-01-18 13:49:00,
2013-01-18 08:54:00,15.1,9.2,30.41,SW,230,3.7,6.9,77,0.00,FEW,,0.00,WeatherDisplay:10.37,2013-01-18 13:54:00,
2013-01-18 08:59:00,15.3,9.7,30.42,WSW,252,3.3,8.1,78,0.00,FEW,,0.00,WeatherDisplay:10.37,2013-01-18 13:59:00,
2013-01-18 09:04:00,15.5,9.9,30.42,SW,229,5.8,8.1,78,0.00,SCT,,0.00,WeatherDisplay:10.37,2013-01-18 14:04:00,
2013-01-18 09:09:00,15.7,10.1,30.42,SW,232,5.6,10.4,78,0.00,SCT,,0.00,WeatherDisplay:10.37,2013-01-18 14:09:00,
2013-01-18 09:14:00,15.9,10.3,30.42,WSW,246,5.6,6.9,78,0.00,SCT,,0.00,WeatherDisplay:10.37,2013-01-18 14:14:00,
2013-01-18 09:19:00,16.2,10.5,30.42,SW,223,6.7,12.0,78,0.00,SCT,,0.00,WeatherDisplay:10.37,2013-01-18 14:19:00,
2013-01-18 09:24:00,16.4,10.7,30.42,WSW,243,7.3,11.5,78,0.00,SCT,,0.00,WeatherDisplay:10.37,2013-01-18 14:24:00,
2013-01-18 09:29:00,16.7,11.0,30.43,SW,227,6.4,11.5,78,0.00,SCT,,0.00,WeatherDisplay:10.37,2013-01-18 14:29:00,
2013-01-18 09:35:00,17.0,11.3,30.43,SW,229,5.2,11.5,78,0.00,SCT,,0.00,WeatherDisplay:10.37,2013-01-18 14:35:00,
2013-01-18 09:40:00,17.4,11.7,30.43,West,263,5.9,10.4,78,0.00,SCT,,0.00,WeatherDisplay:10.37,2013-01-18 14:40:00,
2013-01-18 09:45:00,17.7,11.7,30.43,SW,236,6.6,13.8,77,0.00,SCT,,0.00,WeatherDisplay:10.37,2013-01-18 14:45:00,
2013-01-18 09:50:00,17.9,11.9,30.43,WSW,245,7.6,11.5,77,0.00,SCT,,0.00,WeatherDisplay:10.37,2013-01-18 14:50:00,
2013-01-18 09:55:00,18.1,12.1,30.43,SSW,199,5.4,6.9,77,0.00,SCT,,0.00,WeatherDisplay:10.37,2013-01-18 14:55:00,
2013-01-18 10:00:00,18.4,12.7,30.44,West,268,5.9,8.1,78,0.00,SCT,,0.00,WeatherDisplay:10.37,2013-01-18 15:00:00,
2013-01-18 10:05:00,18.5,12.2,30.45,WSW,238,10.6,18.4,76,0.00,SCT,,0.00,WeatherDisplay:10.37,2013-01-18 15:05:00,
2013-01-18 10:10:00,18.7,12.4,30.45,West,265,9.6,12.7,76,0.00,SCT,,0.00,WeatherDisplay:10.37,2013-01-18 15:10:00,
2013-01-18 10:15:00,18.9,12.3,30.45,WSW,245,9.6,15.0,75,0.00,SCT,,0.00,WeatherDisplay:10.37,2013-01-18 15:15:00,
2013-01-18 10:20:00,19.1,12.2,30.44,West,271,8.7,12.7,74,0.00,SCT,,0.00,WeatherDisplay:10.37,2013-01-18 15:20:00,
2013-01-18 10:25:00,19.4,12.2,30.44,WSW,238,11.3,16.1,73,0.00,SCT,,0.00,WeatherDisplay:10.37,2013-01-18 15:25:00,
2013-01-18 10:30:00,19.4,12.2,30.44,SSW,209,8.1,11.5,73,0.00,SCT,,0.00,WeatherDisplay:10.37,2013-01-18 15:30:00,
2013-01-18 10:35:00,19.3,11.4,30.44,West,261,10.8,15.0,71,0.00,SCT,,0.00,WeatherDisplay:10.37,2013-01-18 15:35:00,
2013-01-18 10:40:00,19.4,11.2,30.43,West,262,12.0,13.8,70,0.00,SCT,,0.00,WeatherDisplay:10.37,2013-01-18 15:40:00,
2013-01-18 10:45:00,19.5,11.3,30.43,SW,229,7.9,8.1,70,0.00,SCT,,0.00,WeatherDisplay:10.37,2013-01-18 15:45:00,
2013-01-18 10:50:00,19.7,11.2,30.43,WSW,250,8.6,12.7,69,0.00,SCT,,0.00,WeatherDisplay:10.37,2013-01-18 15:50:00,
2013-01-18 10:55:00,19.9,12.0,30.43,SW,216,6.8,9.2,71,0.00,SCT,,0.00,WeatherDisplay:10.37,2013-01-18 15:55:00,
2013-01-18 11:00:00,20.0,11.5,30.43,SW,215,9.4,12.0,69,0.00,SCT,,0.00,WeatherDisplay:10.37,2013-01-18 16:00:00,
2013-01-18 11:05:00,19.9,10.7,30.43,SW,233,8.7,13.8,67,0.00,SCT,,0.00,WeatherDisplay:10.37,2013-01-18 16:05:00,
2013-01-18 11:10:00,19.8,10.6,30.43,SW,232,8.3,12.7,67,0.00,SCT,,0.00,WeatherDisplay:10.37,2013-01-18 16:10:00,
2013-01-18 11:15:00,20.0,10.8,30.42,WSW,247,9.3,12.7,67,0.00,SCT,,0.00,WeatherDisplay:10.37,2013-01-18 16:15:00,
2013-01-18 11:20:00,20.0,10.1,30.42,West,261,9.6,11.5,65,0.00,SCT,,0.00,WeatherDisplay:10.37,2013-01-18 16:20:00,
2013-01-18 11:25:00,20.2,10.3,30.42,WSW,238,8.0,13.8,65,0.00,SCT,,0.00,WeatherDisplay:10.37,2013-01-18 16:25:00,
2013-01-18 11:30:00,20.3,10.1,30.42,SW,223,5.6,9.2,64,0.00,SCT,,0.00,WeatherDisplay:10.37,2013-01-18 16:30:00,
2013-01-18 11:35:00,20.7,10.1,30.41,WSW,246,10.4,17.3,63,0.00,SCT,,0.00,WeatherDisplay:10.37,2013-01-18 16:35:00,
2013-01-18 11:40:00,20.4,8.7,30.41,SW,228,12.6,16.1,60,0.00,SCT,,0.00,WeatherDisplay:10.37,2013-01-18 16:40:00,
2013-01-18 11:45:00,20.1,8.4,30.41,WNW,289,8.2,13.8,60,0.00,SCT,,0.00,WeatherDisplay:10.37,2013-01-18 16:45:00,
2013-01-18 11:50:00,20.3,8.6,30.41,WSW,252,8.0,11.5,60,0.00,SCT,,0.00,WeatherDisplay:10.37,2013-01-18 16:50:00,
2013-01-18 11:55:00,20.4,8.7,30.40,West,261,10.2,12.7,60,0.00,SCT,,0.00,WeatherDisplay:10.37,2013-01-18 16:55:00,
2013-01-18 12:00:00,20.4,8.7,30.40,West,268,8.7,12.7,60,0.00,SCT,,0.00,WeatherDisplay:10.37,2013-01-18 17:00:00,
2013-01-18 12:05:00,20.7,9.0,30.40,West,261,7.9,13.8,60,0.00,SCT,,0.00,WeatherDisplay:10.37,2013-01-18 17:05:00,
2013-01-18 12:10:00,20.8,9.1,30.40,WSW,242,9.3,11.5,60,0.00,SCT,,0.00,WeatherDisplay:10.37,2013-01-18 17:10:00,
2013-01-18 12:15:00,20.9,9.2,30.40,WSW,255,11.2,15.0,60,0.00,SCT,,0.00,WeatherDisplay:10.37,2013-01-18 17:15:00,
2013-01-18 12:20:00,21.1,9.4,30.40,WSW,250,10.3,12.7,60,0.00,SCT,,0.00,WeatherDisplay:10.37,2013-01-18 17:20:00,
2013-01-18 12:25:00,20.9,9.2,30.39,West,266,9.4,16.0,60,0.00,SCT,,0.00,WeatherDisplay:10.37,2013-01-18 17:25:00,
2013-01-18 12:30:00,21.0,9.3,30.39,SW,215,9.9,15.0,60,0.00,SCT,,0.00,WeatherDisplay:10.37,2013-01-18 17:30:00,
2013-01-18 12:35:00,21.1,9.4,30.39,West,262,10.3,16.1,60,0.00,SCT,,0.00,WeatherDisplay:10.37,2013-01-18 17:35:00,
2013-01-18 12:40:00,21.3,9.9,30.38,SSW,199,9.4,17.3,61,0.00,SCT,,0.00,WeatherDisplay:10.37,2013-01-18 17:40:00,
2013-01-18 12:45:00,21.5,9.7,30.38,SW,229,10.1,12.7,60,0.00,SCT,,0.00,WeatherDisplay:10.37,2013-01-18 17:45:00,
2013-01-18 12:50:00,21.7,9.9,30.38,West,259,9.0,11.5,60,0.00,SCT,,0.00,WeatherDisplay:10.37,2013-01-18 17:50:00,
2013-01-18 12:55:00,21.8,10.4,30.37,WSW,250,9.3,15.0,61,0.00,SCT,,0.00,WeatherDisplay:10.37,2013-01-18 17:55:00,
2013-01-18 13:00:00,22.0,11.0,30.37,WSW,252,7.6,11.5,62,0.00,SCT,,0.00,WeatherDisplay:10.37,2013-01-18 18:00:00,
2013-01-18 13:05:00,22.2,11.1,30.37,SW,218,9.4,12.7,62,0.00,SCT,,0.00,WeatherDisplay:10.37,2013-01-18 18:05:00,
2013-01-18 13:10:00,22.7,11.6,30.37,SW,215,5.2,10.4,62,0.00,SCT,,0.00,WeatherDisplay:10.37,2013-01-18 18:10:00,
2013-01-18 13:15:00,22.7,10.9,30.37,West,260,11.4,17.3,60,0.00,SCT,,0.00,WeatherDisplay:10.37,2013-01-18 18:15:00,
2013-01-18 13:20:00,22.8,11.3,30.37,SSW,207,11.1,15.0,61,0.00,SCT,,0.00,WeatherDisplay:10.37,2013-01-18 18:20:00,
2013-01-18 13:25:00,22.4,11.3,30.36,SSW,202,7.9,11.5,62,0.00,SCT,,0.00,WeatherDisplay:10.37,2013-01-18 18:25:00,
2013-01-18 13:30:00,22.5,11.4,30.36,WSW,248,11.4,16.1,62,0.00,SCT,,0.00,WeatherDisplay:10.37,2013-01-18 18:30:00,
2013-01-18 13:35:00,22.7,11.6,30.36,SSE,160,7.6,12.7,62,0.00,SCT,,0.00,WeatherDisplay:10.37,2013-01-18 18:35:00,
2013-01-18 13:40:00,22.9,11.8,30.36,SW,227,8.5,11.5,62,0.00,SCT,,0.00,WeatherDisplay:10.37,2013-01-18 18:40:00,
2013-01-18 13:45:00,22.8,12.1,30.36,SW,230,9.2,15.0,63,0.00,SCT,,0.00,WeatherDisplay:10.37,2013-01-18 18:45:00,
2013-01-18 13:50:00,22.9,12.2,30.36,WSW,238,11.4,13.8,63,0.00,SCT,,0.00,WeatherDisplay:10.37,2013-01-18 18:50:00,
2013-01-18 13:55:00,22.8,12.1,30.36,West,263,10.6,16.1,63,0.00,SCT,,0.00,WeatherDisplay:10.37,2013-01-18 18:55:00,
2013-01-18 14:00:00,22.8,12.1,30.35,WSW,244,10.6,12.7,63,0.00,SCT,,0.00,WeatherDisplay:10.37,2013-01-18 19:00:00,
2013-01-18 14:05:00,23.2,12.8,30.35,SSW,211,8.8,13.8,64,0.00,SCT,,0.00,WeatherDisplay:10.37,2013-01-18 19:05:00,
2013-01-18 14:10:00,23.7,12.9,30.35,WSW,254,10.4,11.5,63,0.00,SCT,,0.00,WeatherDisplay:10.37,2013-01-18 19:10:00,
2013-01-18 14:15:00,23.4,13.0,30.34,WSW,242,10.5,13.8,64,0.00,SCT,,0.00,WeatherDisplay:10.37,2013-01-18 19:15:00,
2013-01-18 14:20:00,23.6,13.2,30.34,SW,216,9.5,17.3,64,0.00,SCT,,0.00,WeatherDisplay:10.37,2013-01-18 19:20:00,
2013-01-18 14:25:00,23.7,13.6,30.34,WSW,240,6.8,9.2,65,0.00,SCT,,0.00,WeatherDisplay:10.37,2013-01-18 19:25:00,
2013-01-18 14:30:00,23.9,13.8,30.33,West,267,7.8,11.5,65,0.00,SCT,,0.00,WeatherDisplay:10.37,2013-01-18 19:30:00,
2013-01-18 14:35:00,23.9,13.8,30.33,South,178,7.1,11.5,65,0.00,SCT,,0.00,WeatherDisplay:10.37,2013-01-18 19:35:00,
2013-01-18 14:40:00,23.9,13.8,30.33,WSW,253,7.3,11.5,65,0.00,SCT,,0.00,WeatherDisplay:10.37,2013-01-18 19:40:00,
2013-01-18 14:45:00,23.7,13.6,30.32,SW,229,11.0,15.0,65,0.00,SCT,,0.00,WeatherDisplay:10.37,2013-01-18 19:45:00,
2013-01-18 14:50:00,23.9,14.2,30.32,SSW,196,5.4,8.1,66,0.00,SCT,,0.00,WeatherDisplay:10.37,2013-01-18 19:50:00,
2013-01-18 14:55:00,23.9,14.5,30.32,WSW,251,7.2,11.5,67,0.00,SCT,,0.00,WeatherDisplay:10.37,2013-01-18 19:55:00,
2013-01-18 15:00:00,23.8,14.4,30.32,SW,224,10.4,13.8,67,0.00,SCT,,0.00,WeatherDisplay:10.37,2013-01-18 20:00:00,
2013-01-18 15:05:00,23.8,14.8,30.31,WSW,237,11.2,15.0,68,0.00,BKN,,0.00,WeatherDisplay:10.37,2013-01-18 20:05:00,
2013-01-18 15:10:00,23.9,15.2,30.31,SW,234,9.7,17.3,69,0.00,BKN,,0.00,WeatherDisplay:10.37,2013-01-18 20:10:00,
2013-01-18 15:16:00,24.2,15.5,30.30,South,190,8.1,11.5,69,0.00,BKN,,0.00,WeatherDisplay:10.37,2013-01-18 20:16:00,
2013-01-18 15:21:00,24.3,15.6,30.30,SSW,213,6.7,9.2,69,0.00,BKN,,0.00,WeatherDisplay:10.37,2013-01-18 20:21:00,
2013-01-18 15:26:00,24.5,15.8,30.30,SSW,202,7.2,11.5,69,0.00,BKN,,0.00,WeatherDisplay:10.37,2013-01-18 20:26:00,
2013-01-18 15:31:00,24.7,16.0,30.29,SW,233,6.8,11.5,69,0.00,BKN,,0.00,WeatherDisplay:10.37,2013-01-18 20:31:00,
2013-01-18 15:36:00,24.8,16.1,30.29,SW,225,12.6,20.7,69,0.00,BKN,,0.00,WeatherDisplay:10.37,2013-01-18 20:36:00,
2013-01-18 15:41:00,24.9,16.5,30.28,SW,234,8.4,15.0,70,0.00,BKN,,0.00,WeatherDisplay:10.37,2013-01-18 20:41:00,
2013-01-18 15:46:00,25.0,16.6,30.28,SSW,209,10.0,12.7,70,0.00,BKN,,0.00,WeatherDisplay:10.37,2013-01-18 20:46:00,
2013-01-18 15:51:00,25.1,16.7,30.28,SW,226,6.7,12.7,70,0.00,BKN,,0.00,WeatherDisplay:10.37,2013-01-18 20:51:00,
2013-01-18 15:56:00,25.2,16.8,30.28,SW,230,10.6,16.1,70,0.00,BKN,,0.00,WeatherDisplay:10.37,2013-01-18 20:56:00,
2013-01-18 16:01:00,25.3,16.9,30.27,WSW,253,9.9,12.7,70,0.00,BKN,,0.00,WeatherDisplay:10.37,2013-01-18 21:01:00,
2013-01-18 16:06:00,25.4,17.3,30.27,SW,221,8.7,9.2,71,0.00,BKN,,0.00,WeatherDisplay:10.37,2013-01-18 21:06:00,
2013-01-18 16:11:00,25.5,17.4,30.27,SW,225,4.2,6.9,71,0.00,BKN,,0.00,WeatherDisplay:10.37,2013-01-18 21:11:00,
2013-01-18 16:16:00,25.6,17.5,30.27,SSW,213,9.9,13.8,71,0.00,BKN,,0.00,WeatherDisplay:10.37,2013-01-18 21:16:00,
2013-01-18 16:21:00,25.8,17.7,30.27,WSW,237,7.4,11.5,71,0.00,BKN,,0.00,WeatherDisplay:10.37,2013-01-18 21:21:00,
2013-01-18 16:26:00,25.9,17.8,30.25,SSW,205,7.8,13.8,71,0.00,BKN,,0.00,WeatherDisplay:10.37,2013-01-18 21:26:00,
2013-01-18 16:31:00,25.9,17.8,30.25,South,191,8.0,11.5,71,0.00,BKN,,0.00,WeatherDisplay:10.37,2013-01-18 21:31:00,
2013-01-18 16:36:00,26.0,17.9,30.25,SSW,200,8.7,13.8,71,0.00,BKN,,0.00,WeatherDisplay:10.37,2013-01-18 21:36:00,
2013-01-18 16:41:00,26.2,18.1,30.24,South,187,7.7,10.0,71,0.00,BKN,,0.00,WeatherDisplay:10.37,2013-01-18 21:41:00,
2013-01-18 16:46:00,26.3,18.5,30.24,SSW,192,5.0,12.7,72,0.00,BKN,,0.00,WeatherDisplay:10.37,2013-01-18 21:46:00,
2013-01-18 16:51:00,26.5,18.7,30.24,SW,223,6.7,12.7,72,0.00,BKN,,0.00,WeatherDisplay:10.37,2013-01-18 21:51:00,
2013-01-18 16:56:00,26.6,19.1,30.24,SSW,207,9.0,12.0,73,0.00,BKN,,0.00,WeatherDisplay:10.37,2013-01-18 21:56:00,
2013-01-18 17:01:00,26.7,19.2,30.24,SSW,202,8.9,19.6,73,0.00,BKN,,0.00,WeatherDisplay:10.37,2013-01-18 22:01:00,
2013-01-18 17:06:00,26.7,18.9,30.24,SSW,213,9.9,18.4,72,0.00,BKN,,0.00,WeatherDisplay:10.37,2013-01-18 22:06:00,
2013-01-18 17:11:00,26.7,18.9,30.24,SSW,204,7.0,14.0,72,0.00,BKN,,0.00,WeatherDisplay:10.37,2013-01-18 22:11:00,
2013-01-18 17:16:00,26.8,18.3,30.24,SW,223,6.2,11.5,70,0.00,BKN,,0.00,WeatherDisplay:10.37,2013-01-18 22:16:00,
2013-01-18 17:21:00,26.8,18.0,30.24,SSW,207,8.0,12.0,69,0.00,BKN,,0.00,WeatherDisplay:10.37,2013-01-18 22:21:00,
2013-01-18 17:26:00,26.9,17.7,30.24,SSW,195,8.7,14.0,68,0.00,BKN,,0.00,WeatherDisplay:10.37,2013-01-18 22:26:00,
2013-01-18 17:31:00,26.8,16.6,30.23,SSW,193,10.0,17.3,65,0.00,BKN,,0.00,WeatherDisplay:10.37,2013-01-18 22:31:00,
2013-01-18 17:36:00,26.7,16.1,30.23,SSW,194,8.7,11.5,64,0.00,BKN,,0.00,WeatherDisplay:10.37,2013-01-18 22:36:00,
2013-01-18 17:41:00,26.6,16.1,30.23,South,185,4.8,8.1,64,0.00,BKN,,0.00,WeatherDisplay:10.37,2013-01-18 22:41:00,
2013-01-18 17:46:00,26.6,16.1,30.23,South,185,5.2,6.9,64,0.00,BKN,,0.00,WeatherDisplay:10.37,2013-01-18 22:46:00,
2013-01-18 17:51:00,26.6,16.1,30.23,SW,215,5.2,9.0,64,0.00,BKN,,0.00,WeatherDisplay:10.37,2013-01-18 22:51:00,
2013-01-18 17:56:00,26.6,16.1,30.23,South,179,7.0,12.7,64,0.00,BKN,,0.00,WeatherDisplay:10.37,2013-01-18 22:56:00,
2013-01-18 18:01:00,26.6,17.5,30.22,South,184,6.4,11.5,68,0.00,OVC,,0.00,WeatherDisplay:10.37,2013-01-18 23:01:00,
2013-01-18 18:06:00,26.6,15.7,30.22,South,186,2.5,5.8,63,0.00,OVC,,0.00,WeatherDisplay:10.37,2013-01-18 23:06:00,
2013-01-18 18:11:00,26.6,16.0,30.22,South,182,6.0,10.0,64,0.00,OVC,,0.00,WeatherDisplay:10.37,2013-01-18 23:11:00,
2013-01-18 18:16:00,26.5,15.2,30.22,SSE,159,3.1,6.9,62,0.00,OVC,,0.00,WeatherDisplay:10.37,2013-01-18 23:16:00,
2013-01-18 18:21:00,26.5,15.2,30.21,South,176,3.0,6.0,62,0.00,OVC,,0.00,WeatherDisplay:10.37,2013-01-18 23:21:00,
2013-01-18 18:26:00,26.4,15.5,30.21,South,183,3.6,4.6,63,0.00,OVC,,0.00,WeatherDisplay:10.37,2013-01-18 23:26:00,
2013-01-18 18:31:00,26.4,15.5,30.21,South,184,2.0,5.0,63,0.00,OVC,,0.00,WeatherDisplay:10.37,2013-01-18 23:31:00,
2013-01-18 18:36:00,26.5,15.6,30.20,SSW,199,2.8,6.0,63,0.00,OVC,,0.00,WeatherDisplay:10.37,2013-01-18 23:36:00,
2013-01-18 18:41:00,26.5,15.6,30.20,South,179,0.8,8.1,63,0.00,OVC,,0.00,WeatherDisplay:10.37,2013-01-18 23:41:00,
2013-01-18 18:46:00,26.5,15.2,30.19,SE,144,0.3,4.6,62,0.00,OVC,,0.00,WeatherDisplay:10.37,2013-01-18 23:46:00,
2013-01-18 18:51:00,26.4,15.5,30.19,SSE,157,0.5,3.5,63,0.00,OVC,,0.00,WeatherDisplay:10.37,2013-01-18 23:51:00,
2013-01-18 18:56:00,26.4,15.5,30.19,South,173,3.0,4.0,63,0.00,OVC,,0.00,WeatherDisplay:10.37,2013-01-18 23:56:00,
2013-01-18 19:01:00,26.5,15.6,30.19,South,190,1.0,3.5,63,0.00,OVC,,0.00,WeatherDisplay:10.37,2013-01-19 00:01:00,
2013-01-18 19:06:00,26.5,15.6,30.19,SSE,167,2.5,4.6,63,0.00,OVC,,0.00,WeatherDisplay:10.37,2013-01-19 00:06:00,
2013-01-18 19:11:00,26.5,15.6,30.19,SSE,150,2.0,3.0,63,0.00,OVC,,0.00,WeatherDisplay:10.37,2013-01-19 00:11:00,
2013-01-18 19:16:00,26.5,15.6,30.18,SSE,156,2.0,7.0,63,0.00,OVC,,0.00,WeatherDisplay:10.37,2013-01-19 00:16:00,
2013-01-18 19:21:00,26.6,15.7,30.18,South,178,2.3,8.1,63,0.00,OVC,,0.00,WeatherDisplay:10.37,2013-01-19 00:21:00,
2013-01-18 19:26:00,26.6,15.7,30.17,SSE,165,7.3,9.2,63,0.00,OVC,,0.00,WeatherDisplay:10.37,2013-01-19 00:26:00,
2013-01-18 19:31:00,26.7,15.8,30.17,SSE,166,2.0,9.0,63,0.00,OVC,,0.00,WeatherDisplay:10.37,2013-01-19 00:31:00,
2013-01-18 19:36:00,26.6,15.7,30.16,South,171,4.2,5.8,63,0.00,OVC,,0.00,WeatherDisplay:10.37,2013-01-19 00:36:00,
2013-01-18 19:41:00,26.6,15.7,30.16,SSW,196,4.8,9.2,63,0.00,OVC,,0.00,WeatherDisplay:10.37,2013-01-19 00:41:00,
2013-01-18 19:46:00,26.9,16.3,30.15,South,182,3.4,9.2,64,0.00,OVC,,0.00,WeatherDisplay:10.37,2013-01-19 00:46:00,
2013-01-18 19:51:00,27.2,16.6,30.15,SSW,209,5.8,13.8,64,0.00,OVC,,0.00,WeatherDisplay:10.37,2013-01-19 00:51:00,
2013-01-18 19:56:00,27.7,16.7,30.14,SSE,152,8.0,15.0,63,0.00,OVC,,0.00,WeatherDisplay:10.37,2013-01-19 00:56:00,
2013-01-18 20:01:00,27.9,16.9,30.13,SSE,156,5.3,14.0,63,0.00,BKN,,0.00,WeatherDisplay:10.37,2013-01-19 01:01:00,
2013-01-18 20:06:00,28.1,16.7,30.13,South,186,3.4,10.4,62,0.00,BKN,,0.00,WeatherDisplay:10.37,2013-01-19 01:06:00,
2013-01-18 20:11:00,28.1,16.7,30.12,SSW,209,8.0,15.0,62,0.00,BKN,,0.00,WeatherDisplay:10.37,2013-01-19 01:11:00,
2013-01-18 20:16:00,28.3,16.9,30.12,SSW,213,5.9,12.7,62,0.00,BKN,,0.00,WeatherDisplay:10.37,2013-01-19 01:16:00,
2013-01-18 20:22:00,28.4,17.0,30.12,SSE,164,7.5,10.4,62,0.00,BKN,,0.00,WeatherDisplay:10.37,2013-01-19 01:22:00,
2013-01-18 20:27:00,28.5,17.1,30.12,SW,224,8.5,11.5,62,0.00,BKN,,0.00,WeatherDisplay:10.37,2013-01-19 01:27:00,
2013-01-18 20:32:00,28.6,17.2,30.11,SW,215,5.2,17.3,62,0.00,BKN,,0.00,WeatherDisplay:10.37,2013-01-19 01:32:00,
2013-01-18 20:37:00,28.7,17.3,30.10,South,173,7.3,11.5,62,0.00,BKN,,0.00,WeatherDisplay:10.37,2013-01-19 01:37:00,
2013-01-18 20:42:00,28.8,17.4,30.10,South,186,9.0,17.0,62,0.00,BKN,,0.00,WeatherDisplay:10.37,2013-01-19 01:42:00,
2013-01-18 20:47:00,28.9,17.5,30.09,South,178,7.9,11.5,62,0.00,BKN,,0.00,WeatherDisplay:10.37,2013-01-19 01:47:00,
2013-01-18 20:52:00,28.9,17.1,30.09,South,177,9.0,16.0,61,0.00,BKN,,0.00,WeatherDisplay:10.37,2013-01-19 01:52:00,
2013-01-18 20:57:00,29.0,17.2,30.09,SSE,152,7.6,16.1,61,0.00,BKN,,0.00,WeatherDisplay:10.37,2013-01-19 01:57:00,
2013-01-18 21:02:00,29.1,17.3,30.08,SSW,197,9.9,17.0,61,0.00,BKN,,0.00,WeatherDisplay:10.37,2013-01-19 02:02:00,
2013-01-18 21:07:00,29.2,17.4,30.08,SW,217,12.0,16.0,61,0.00,BKN,,0.00,WeatherDisplay:10.37,2013-01-19 02:07:00,
2013-01-18 21:12:00,29.2,17.8,30.08,SSW,198,6.0,15.0,62,0.00,BKN,,0.00,WeatherDisplay:10.37,2013-01-19 02:12:00,
2013-01-18 21:17:00,29.2,17.8,30.07,SSW,198,9.0,15.0,62,0.00,BKN,,0.00,WeatherDisplay:10.37,2013-01-19 02:17:00,
2013-01-18 21:22:00,29.4,18.0,30.07,SSW,206,9.0,16.0,62,0.00,BKN,,0.00,WeatherDisplay:10.37,2013-01-19 02:22:00,
2013-01-18 21:27:00,29.6,18.2,30.06,South,191,9.0,16.1,62,0.00,BKN,,0.00,WeatherDisplay:10.37,2013-01-19 02:27:00,
2013-01-18 21:32:00,29.8,18.3,30.06,South,186,10.0,17.0,62,0.00,BKN,,0.00,WeatherDisplay:10.37,2013-01-19 02:32:00,
2013-01-18 21:37:00,30.1,18.6,30.06,SSW,198,12.0,21.0,62,0.00,BKN,,0.00,WeatherDisplay:10.37,2013-01-19 02:37:00,
2013-01-18 21:42:00,30.3,18.8,30.05,SSE,166,10.5,17.3,62,0.00,BKN,,0.00,WeatherDisplay:10.37,2013-01-19 02:42:00,
2013-01-18 21:47:00,30.5,19.0,30.05,WSW,237,7.1,11.5,62,0.00,BKN,,0.00,WeatherDisplay:10.37,2013-01-19 02:47:00,
2013-01-18 21:52:00,30.7,19.2,30.05,South,187,9.8,21.9,62,0.00,BKN,,0.00,WeatherDisplay:10.37,2013-01-19 02:52:00,
2013-01-18 21:57:00,30.9,19.4,30.05,SW,221,8.4,15.0,62,0.00,BKN,,0.00,WeatherDisplay:10.37,2013-01-19 02:57:00,
2013-01-18 22:02:00,31.1,19.6,30.04,SW,217,12.6,17.3,62,0.00,BKN,,0.00,WeatherDisplay:10.37,2013-01-19 03:02:00,
2013-01-18 22:07:00,31.4,19.9,30.03,East,82,9.9,19.6,62,0.00,BKN,,0.00,WeatherDisplay:10.37,2013-01-19 03:07:00,
2013-01-18 22:12:00,31.6,20.1,30.03,SW,227,9.4,17.3,62,0.00,BKN,,0.00,WeatherDisplay:10.37,2013-01-19 03:12:00,
2013-01-18 22:17:00,31.7,19.8,30.04,SW,236,10.9,17.3,61,0.00,BKN,,0.00,WeatherDisplay:10.37,2013-01-19 03:17:00,
2013-01-18 22:22:00,31.9,20.3,30.04,SSW,211,8.2,13.8,62,0.00,BKN,,0.00,WeatherDisplay:10.37,2013-01-19 03:22:00,
2013-01-18 22:27:00,32.0,20.4,30.04,SW,216,9.5,17.3,62,0.00,BKN,,0.00,WeatherDisplay:10.37,2013-01-19 03:27:00,
2013-01-18 22:32:00,32.1,20.5,30.04,SSW,213,10.6,15.0,62,0.00,BKN,,0.00,WeatherDisplay:10.37,2013-01-19 03:32:00,
2013-01-18 22:38:00,32.3,21.1,30.04,South,169,11.7,18.4,63,0.00,BKN,,0.00,WeatherDisplay:10.37,2013-01-19 03:38:00,
2013-01-18 22:43:00,32.4,21.2,30.04,SSW,203,10.0,15.0,63,0.00,BKN,,0.00,WeatherDisplay:10.37,2013-01-19 03:43:00,
2013-01-18 22:48:00,32.6,21.4,30.04,WSW,258,9.7,18.4,63,0.00,BKN,,0.00,WeatherDisplay:10.37,2013-01-19 03:48:00,
2013-01-18 22:53:00,32.8,21.6,30.03,South,182,9.0,15.0,63,0.00,BKN,,0.00,WeatherDisplay:10.37,2013-01-19 03:53:00,
2013-01-18 22:58:00,32.9,21.3,30.02,SW,217,9.8,19.6,62,0.00,BKN,,0.00,WeatherDisplay:10.37,2013-01-19 03:58:00,
2013-01-18 23:03:00,33.1,21.5,30.01,SSW,193,10.3,18.4,62,0.00,OVC,,0.00,WeatherDisplay:10.37,2013-01-19 04:03:00,
2013-01-18 23:08:00,33.2,21.6,30.02,SSW,196,13.1,18.4,62,0.00,OVC,,0.00,WeatherDisplay:10.37,2013-01-19 04:08:00,
2013-01-18 23:13:00,33.2,21.6,30.01,SSW,212,7.9,16.1,62,0.00,OVC,,0.00,WeatherDisplay:10.37,2013-01-19 04:13:00,
2013-01-18 23:18:00,33.3,21.7,30.00,SSW,210,10.7,19.6,62,0.00,OVC,,0.00,WeatherDisplay:10.37,2013-01-19 04:18:00,
2013-01-18 23:23:00,33.4,21.8,30.00,SSW,200,10.0,16.1,62,0.00,OVC,,0.00,WeatherDisplay:10.37,2013-01-19 04:23:00,
2013-01-18 23:28:00,33.5,21.9,30.00,South,176,8.0,12.7,62,0.00,OVC,,0.00,WeatherDisplay:10.37,2013-01-19 04:28:00,
2013-01-18 23:33:00,33.5,21.5,30.00,SSE,160,9.3,13.8,61,0.00,OVC,,0.00,WeatherDisplay:10.37,2013-01-19 04:33:00,
2013-01-18 23:38:00,33.6,22.0,30.00,SSW,201,10.6,16.1,62,0.00,OVC,,0.00,WeatherDisplay:10.37,2013-01-19 04:38:00,
2013-01-18 23:43:00,33.8,22.1,30.00,SW,236,9.0,17.3,62,0.00,OVC,,0.00,WeatherDisplay:10.37,2013-01-19 04:43:00,
2013-01-18 23:48:00,33.9,21.9,30.00,SSW,204,9.7,13.8,61,0.00,OVC,,0.00,WeatherDisplay:10.37,2013-01-19 04:48:00,
2013-01-18 23:53:00,33.9,21.9,30.01,SSW,199,6.9,12.0,61,0.00,OVC,,0.00,WeatherDisplay:10.37,2013-01-19 04:53:00,
2013-01-18 23:58:00,33.9,22.2,30.01,SW,217,8.5,11.5,62,0.00,OVC,,0.00,WeatherDisplay:10.37,2013-01-19 04:58:00,